Flag for U.S.A. Weather past 2 weeks in Peoria, Illinois, U.S.A.

Now
89 °F

Sunny.


Feels Like: 94 °F
Forecast: 70 / 87 °F
Wind: 14 mph from Southwest

Location: Greater Peoria Regional Airport

Current Time: Aug 2, 2015 at 12:13:43 PM

Latest Report: Aug 2, 2015 at 11:54 AM


Visibility: 10 mi

Pressure: 29.85 "Hg

Humidity: 53%

Dew point: 70 °F

Location of PeoriaLocation

Historic Weather in Peoria — Graph

°F

Peoria temperature yesterday

Maximum temperature yesterday: 88 °F (at 2:54 PM)
Minimum temperature yesterday: 65 °F (at 5:54 AM)
Average temperature yesterday: 77 °F

Past Weeks' High & Low Weather Summary

 TemperatureHumidityPressure
High91 °F (Jul 25, 3:54 PM)94% (Jul 27, 2:58 AM)30.12 "Hg (Jul 27, 2:58 AM)
Low63 °F (Jul 22, 3:54 AM)35% (Jul 31, 4:54 PM)29.76 "Hg (Jul 20, 7:54 PM)
Average78 °F68%29.95 "Hg
* Reported Jul 18 10:54 AM — Aug 2 10:54 AM, Peoria, Weather by CustomWeather, © 2015

Note: Actual official high and low records may vary slightly from our data, if they occured in-between our weather recording intervals... More about our weather records

Advertising

Peoria weather history for previous 24 hours

 ConditionsComfort  
Time TempWeatherWind HumidityBarometerVisibility
10:54 AM
Sun, Aug 2
86 °FSunny.14 mph57%29.87 "Hg10 mi
9:54 AM84 °FSunny.10 mph61%29.88 "Hg10 mi
8:54 AM78 °FSunny.10 mph71%29.89 "Hg10 mi
7:54 AM74 °FSunny.7 mph79%29.89 "Hg10 mi
6:54 AM71 °FClear.8 mph87%29.89 "Hg9 mi
5:54 AM70 °FClear.7 mph84%29.88 "Hg9 mi
4:54 AM69 °FClear.5 mph87%29.89 "Hg10 mi
3:54 AM70 °FClear.5 mph84%29.90 "Hg10 mi
2:54 AM71 °FClear.6 mph84%29.90 "Hg10 mi
1:54 AM72 °FClear.8 mph84%29.91 "Hg10 mi
12:54 AM73 °FClear.3 mph79%29.92 "Hg10 mi
11:54 PM
Sat, Aug 1
73 °FClear.6 mph79%29.93 "Hg10 mi
10:54 PM74 °FClear.5 mph74%29.93 "Hg10 mi
9:54 PM76 °FClear.5 mph67%29.93 "Hg10 mi
8:54 PM79 °FSunny.3 mph60%29.93 "Hg10 mi
7:54 PM81 °FSunny.7 mph54%29.93 "Hg10 mi
6:54 PM84 °FSunny.8 mph51%29.93 "Hg10 mi
5:54 PM87 °FSunny.10 mph43%29.94 "Hg10 mi
4:54 PM88 °FSunny.12 mph38%29.95 "Hg10 mi
3:54 PM88 °FSunny.12 mph35%29.96 "Hg10 mi
2:54 PM88 °FSunny.10 mph35%29.97 "Hg10 mi
1:54 PM85 °FSunny.9 mph37%29.98 "Hg10 mi
12:54 PM86 °FSunny.9 mph42%30.00 "Hg10 mi
Weather by CustomWeather, © 2015

See weather overviewHow to use our weather pages